Wetbulb
64.07 63.68 63.94 62.76 63.16 62.94 63.78 63.84 63.82 64.77 65.85 65.83 66.01 66.31 65.78 64.63 65.38 65.64 64.49 68.61 70.24 71.80 72.03 71.98 71.30 70.58 70.92 71.71 71.85 71.15 71.44 71.53 71.34 70.99 70.07 70.02 69.84 70.14 70.23 69.88 69.25 69.26 68.37
63.63 63.10 62.36 61.90 61.35 62.73 63.50 64.00 63.57 63.53 64.50 64.70 65.00 65.64 65.38 64.63 64.97 65.40 64.96 65.43 70.57 71.32 71.17 71.53 71.58 70.50 70.26 70.55 70.40 71.21 70.22 70.78 71.21 70.68 70.39 70.58 69.68 69.75 69.63 69.69 69.70 69.28 68.56
63.33 62.80 61.54 61.53 61.78 61.95 62.34 63.15 62.03 61.96 62.04 62.88 63.10 63.94 63.97 64.61 65.16 65.18 64.24 65.45 67.70 71.07 70.59 71.00 71.09 70.71 70.70 70.38 70.14 70.39 70.76 69.61 70.80 70.74 70.28 70.35 69.79 69.37 69.34 69.32 69.48 69.02 68.40
63.75 62.21 61.82 60.91 61.58 61.79 62.38 62.94 61.77 60.89 61.50 61.77 62.19 62.98 63.81 64.46 64.83 64.71 64.44 65.14 66.40 67.28 69.20 70.06 70.41 70.06 70.16 70.22 69.88 70.09 70.60 69.66 69.49 70.37 70.40 70.23 70.03 69.40 69.36 69.11 69.18 69.30 68.47
64.75 63.75 62.57 61.97 61.17 61.86 61.99 62.40 61.46 61.33 60.34 61.06 62.15 62.76 64.37 64.10 64.70 65.46 64.49 65.09 65.75 66.63 66.24 67.88 69.49 69.50 69.92 69.91 69.66 69.79 69.70 70.36 69.62 69.01 70.17 69.85 70.02 69.54 69.51 69.42 69.66 69.18 69.20
66.06 64.16 63.92 62.47 61.65 61.95 61.84 62.07 61.87 61.49 60.43 61.61 62.93 63.38 63.37 63.96 64.59 64.35 64.41 65.10 65.75 66.61 65.93 65.42 64.99 66.70 69.16 69.33 69.69 69.68 70.25 70.16 70.08 69.35 69.23 69.34 69.79 69.72 69.58 69.35 69.24 69.20 69.50
66.72 64.67 64.40 63.50 62.54 61.97 62.41 62.49 62.14 60.82 60.25 61.28 60.66 59.82 61.16 63.02 63.40 63.94 64.05 64.16 64.60 64.51 64.21 64.56 64.05 64.00 65.26 68.64 68.31 68.94 69.00 69.26 70.04 69.91 69.05 68.55 69.19 69.52 69.29 69.28 69.04 68.62 68.83
67.60 66.35 65.13 64.58 63.41 62.78 61.44 62.82 62.17 60.06 60.61 61.41 59.54 58.86 57.34 59.53 60.75 63.11 62.59 62.92 62.70 63.28 63.73 63.94 63.38 63.51 63.35 63.47 65.01 68.13 68.99 68.86 69.55 70.27 69.28 67.93 68.74 69.60 69.92 69.56 68.50 68.85 68.78
68.55 67.76 66.42 65.51 64.20 64.15 62.59 62.50 63.03 61.54 59.49 60.74 62.07 61.11 56.10 55.68 55.58 57.61 59.76 61.16 61.06 60.77 61.60 62.34 63.02 63.33 63.28 62.89 64.96 66.49 67.91 68.27 69.63 69.99 69.72 68.31 68.83 69.46 69.49 69.33 68.60 68.76 68.59
67.28 68.43 67.67 66.14 65.29 65.05 63.92 63.22 63.99 62.92 61.81 61.39 62.75 63.29 62.32 60.48 56.83 53.72 57.62 58.63 59.65 60.37 59.52 60.05 61.11 62.36 62.83 62.01 63.99 65.86 66.22 67.22 69.65 69.76 69.93 68.97 68.76 69.26 69.48 69.00 68.49 67.97 68.55
65.27 67.83 67.57 66.36 65.63 65.89 64.62 63.74 62.77 62.94 63.98 63.31 62.99 62.14 61.93 61.17 60.59 58.32 54.51 56.34 56.90 58.06 59.10 59.60 60.00 60.51 61.94 61.19 60.83 62.57 64.70 65.62 66.76 67.13 68.52 69.22 68.85 68.92 68.91 68.39 68.27 67.76 68.02
64.84 66.40 67.25 66.51 66.31 65.93 64.52 64.55 65.24 64.75 64.04 64.02 63.33 63.09 62.01 60.72 59.50 57.91 56.48 54.09 52.96 55.17 57.88 58.66 58.95 59.63 60.47 59.75 62.08 62.79 63.60 63.78 63.78 64.38 65.26 67.16 68.42 69.12 68.81 67.85 68.04 68.47 68.29
63.45 65.09 66.19 65.78 65.99 66.17 65.57 65.43 65.59 64.94 64.22 63.53 63.39 62.65 62.52 61.70 60.54 58.14 56.94 53.13 52.89 53.45 55.88 56.98 58.47 59.13 60.84 60.15 61.66 62.88 64.18 62.39 61.77 61.50 62.37 64.20 66.25 66.58 67.57 67.70 67.51 67.36 67.31
63.89 66.05 66.98 66.73 66.26 66.56 65.93 65.46 65.74 64.97 64.48 64.06 63.56 63.14 62.16 61.42 58.98 59.34 56.46 53.80 51.39 51.66 53.11 54.51 58.31 61.02 61.43 61.16 62.41 63.28 61.65 61.61 60.78 59.91 60.40 61.46 63.27 64.33 65.42 65.72 65.98 66.02 65.71
64.81 65.53 65.86 66.13 66.29 66.20 65.64 64.62 64.81 64.61 64.40 62.77 61.00 60.05 59.03 58.79 59.80 57.99 56.16 55.56 54.31 49.98 50.49 53.69 56.02 60.08 61.45 61.81 62.11 61.62 60.82 61.67 61.29 59.41 59.81 60.45 61.47 62.33 62.35 62.66 62.84 63.30 63.30
65.29 65.68 65.61 65.55 65.61 65.79 65.75 65.84 64.98 64.33 61.83 61.61 61.48 59.21 58.45 58.54 57.48 57.46 57.06 56.22 54.88 53.13 50.17 53.50 56.06 59.33 61.12 60.78 63.45 61.75 61.13 61.43 60.12 59.46 60.16 59.68 59.88 60.22 60.59 60.74 61.11 61.94 61.97
65.34 65.46 65.55 65.19 65.55 65.39 65.82 65.10 64.09 62.96 62.67 61.19 59.66 59.17 58.67 58.95 58.36 57.80 56.88 55.62 55.06 54.34 52.53 54.37 57.32 59.97 60.04 60.98 61.32 61.48 61.50 60.90 60.15 59.33 60.40 58.93 58.25 58.39 58.89 59.39 59.44 60.10 60.34
65.52 65.94 66.56 66.47 66.07 65.83 64.75 63.43 62.32 62.52 60.98 59.57 59.29 59.03 59.00 60.58 57.84 57.62 57.64 55.22 55.04 54.98 54.50 53.55 57.48 59.31 58.73 60.25 60.80 60.58 60.90 61.51 61.05 59.76 58.39 57.30 56.78 56.80 57.24 56.94 57.50 57.87 57.18
66.54 66.72 65.89 65.80 65.85 64.30 63.27 63.11 63.04 61.51 60.24 59.86 59.51 59.11 59.28 59.68 58.14 56.88 56.32 55.06 54.54 56.92 56.18 56.42 57.99 59.81 59.48 59.61 58.95 59.31 59.17 59.56 60.42 60.18 57.28 56.42 56.04 55.83 56.40 56.20 55.96 55.46 54.25
65.56 65.46 65.47 65.25 65.16 64.47 63.94 62.85 62.11 59.97 59.76 59.74 60.15 59.99 59.65 59.44 60.52 58.68 56.40 55.08 55.76 56.76 58.39 58.92 58.39 57.97 57.79 58.51 58.59 57.60 56.86 58.47 57.63 59.07 58.13 56.94 56.22 56.18 55.67 55.61 56.32 55.88 53.13
65.54 65.20 64.08 63.81 63.50 63.16 62.30 60.56 60.11 59.17 58.80 59.15 59.66 60.69 60.71 60.99 59.55 58.77 57.40 55.72 56.00 56.66 58.21 57.74 57.40 57.22 56.68 56.86 56.36 57.28 56.34 56.86 57.44 57.81 57.83 58.19 58.25 58.11 56.88 56.30 58.22 56.62 52.77
63.06 62.87 61.71 61.60 59.57 58.76 50.66 53.93 58.65 59.43 59.26 58.81 58.66 59.30 59.48 59.86 58.13 54.96 55.58 55.34 57.24 58.44 58.38 57.24 55.15 56.68 56.68 56.46 57.02 56.88 56.72 56.42 54.20 58.83 57.60 56.58 59.17 57.63 58.31 59.18 54.51 52.52 51.21
59.77 58.93 57.62 57.44 56.14 55.19 47.21 49.37 53.12 59.06 58.58 57.98 57.84 57.96 58.80 60.04 59.01 57.42 52.59 53.47 53.05 52.66 56.11 57.19 57.19 56.77 56.10 56.98 57.14 56.70 56.38 54.64 54.90 57.32 57.96 55.11 57.97 56.56 58.19 55.39 51.58 50.05 49.54
57.78 57.04 56.52 56.90 56.30 54.05 47.21 47.57 51.38 58.19 57.40 57.48 57.76 58.06 58.24 58.30 58.28 58.17 57.56 56.60 56.34 56.52 56.28 57.71 57.64 56.50 56.78 57.85 57.79 57.71 54.30 56.54 56.78 56.48 56.92 54.00 55.96 54.40 56.38 56.00 50.29 49.29 48.59
57.52 56.42 57.00 56.88 56.72 55.82 46.85 46.85 54.81 56.88 56.20 58.31 58.26 59.34 60.11 59.52 49.39 47.94 57.56 56.00 54.43 53.80 50.22 50.36 50.78 49.21 48.30 49.78 54.67 56.64 54.67 55.88 54.00 53.86 56.06 55.21 54.43 54.02 55.23 54.07 53.32 49.53 48.26
58.38 57.54 56.12 57.54 53.96 55.96 45.04 46.49 53.73 56.40 56.76 57.06 57.26 56.16 50.29 54.40 46.31 47.57 57.24 56.94 55.56 54.69 54.77 54.87 54.79 50.91 51.44 52.24 51.06 57.97 57.00 55.66 53.78 53.49 55.37 54.11 53.84 54.17 53.54 54.17 53.93 52.54 51.14
MSLP
1009.37 1009.49 1009.95 1010.32 1010.46 1010.83 1011.01 1011.36 1011.58 1011.92 1012.08 1012.15 1012.36 1012.68 1012.75 1012.83 1012.87 1012.66 1012.70 1012.47 1012.55 1012.68 1012.75 1012.93 1013.22 1013.41 1013.48 1013.61 1013.81 1013.99 1014.17 1014.37 1014.45 1014.59 1014.91 1015.23 1015.55 1015.79 1016.12 1016.55 1017.01 1017.25 1017.72
1009.09 1009.34 1009.63 1009.93 1010.22 1010.34 1010.52 1010.77 1011.18 1011.53 1011.74 1011.95 1012.12 1012.31 1012.55 1012.54 1012.53 1012.38 1012.32 1012.24 1012.09 1012.34 1012.53 1012.62 1012.71 1013.02 1013.30 1013.36 1013.53 1013.75 1014.02 1014.14 1014.35 1014.48 1014.79 1015.08 1015.36 1015.67 1016.04 1016.32 1016.71 1017.05 1017.52
1008.50 1008.79 1009.15 1009.34 1009.48 1009.76 1010.03 1010.43 1010.91 1011.31 1011.54 1011.67 1011.86 1012.05 1012.16 1012.14 1012.06 1011.95 1011.97 1011.95 1011.94 1011.96 1012.24 1012.44 1012.58 1012.66 1012.75 1012.96 1013.27 1013.47 1013.66 1013.86 1014.01 1014.30 1014.54 1014.95 1015.28 1015.58 1015.92 1016.17 1016.56 1017.01 1017.33
1007.45 1007.80 1008.34 1008.57 1008.70 1009.18 1009.61 1010.10 1010.56 1011.04 1011.24 1011.35 1011.48 1011.58 1011.73 1011.78 1011.59 1011.57 1011.48 1011.71 1011.71 1011.88 1012.21 1012.36 1012.25 1012.48 1012.57 1012.62 1012.81 1012.95 1013.24 1013.46 1013.73 1014.01 1014.30 1014.67 1015.03 1015.29 1015.63 1015.98 1016.31 1016.70 1017.06
1006.51 1007.11 1007.38 1007.73 1008.18 1008.74 1009.11 1009.45 1010.07 1010.36 1010.88 1010.98 1010.98 1011.19 1011.28 1011.41 1011.25 1011.16 1011.28 1011.44 1011.56 1011.93 1012.31 1012.65 1012.04 1012.14 1012.19 1012.24 1012.43 1012.60 1012.82 1013.06 1013.39 1013.75 1013.99 1014.32 1014.69 1014.96 1015.33 1015.71 1016.07 1016.49 1016.71
1006.07 1006.60 1007.03 1007.36 1007.72 1008.23 1008.59 1009.04 1009.43 1009.88 1010.19 1010.36 1010.60 1010.95 1010.97 1011.01 1010.92 1010.92 1010.90 1011.07 1011.46 1011.45 1011.70 1011.91 1011.82 1011.81 1011.84 1012.04 1012.13 1012.29 1012.37 1012.61 1012.97 1013.35 1013.61 1013.97 1014.36 1014.75 1015.15 1015.56 1015.80 1016.13 1016.43
1005.39 1005.80 1006.46 1006.83 1007.27 1007.61 1007.74 1008.39 1009.01 1009.39 1009.92 1010.14 1010.70 1010.89 1010.74 1010.56 1010.57 1010.46 1010.44 1010.74 1011.01 1011.09 1011.03 1011.27 1011.31 1011.46 1011.44 1011.47 1011.71 1011.96 1012.08 1012.31 1012.42 1012.91 1013.24 1013.67 1014.07 1014.46 1014.87 1015.24 1015.48 1015.81 1016.01
1004.60 1005.12 1005.44 1005.97 1006.61 1007.04 1007.31 1007.82 1008.22 1008.76 1009.49 1009.78 1010.30 1010.76 1010.82 1010.66 1010.35 1010.12 1010.32 1010.65 1010.87 1010.92 1010.78 1010.47 1010.87 1010.95 1011.04 1011.30 1011.42 1011.51 1011.70 1011.89 1011.97 1012.42 1012.87 1013.34 1013.81 1014.19 1014.58 1014.86 1015.22 1015.53 1015.97
1003.87 1004.33 1004.74 1005.24 1005.88 1006.14 1006.48 1006.88 1007.36 1008.03 1008.93 1009.35 1009.58 1009.90 1010.39 1010.50 1010.54 1010.29 1010.26 1010.27 1010.32 1010.43 1010.28 1010.32 1010.44 1010.50 1010.68 1010.93 1011.05 1011.14 1011.35 1011.56 1011.72 1011.95 1012.52 1013.02 1013.49 1013.88 1014.24 1014.61 1014.92 1015.20 1015.64
1003.18 1003.69 1004.24 1004.65 1005.05 1005.39 1005.79 1006.05 1006.65 1007.31 1008.00 1008.64 1009.40 1009.37 1009.38 1009.50 1010.29 1010.57 1010.68 1010.44 1010.37 1010.26 1010.21 1010.26 1010.38 1010.37 1010.49 1010.68 1010.82 1010.95 1011.08 1011.33 1011.45 1011.78 1012.29 1012.82 1013.23 1013.61 1013.93 1014.36 1014.72 1014.98 1015.43
1002.85 1003.25 1003.58 1003.98 1004.33 1004.65 1005.05 1005.53 1006.27 1006.82 1007.15 1007.78 1008.26 1009.02 1009.29 1009.44 1009.58 1010.21 1010.61 1010.70 1010.51 1010.42 1010.31 1010.32 1010.48 1010.52 1010.37 1010.57 1010.82 1010.92 1010.93 1011.10 1011.32 1011.59 1012.11 1012.60 1012.99 1013.33 1013.82 1014.27 1014.60 1015.10 1015.64
1002.59 1002.71 1002.93 1003.33 1003.65 1004.10 1004.58 1005.03 1005.59 1006.13 1006.62 1007.19 1007.64 1007.98 1008.31 1009.05 1009.59 1009.91 1010.32 1010.65 1010.89 1010.71 1010.51 1010.43 1010.40 1010.34 1010.20 1010.49 1010.70 1010.80 1010.79 1010.96 1011.23 1011.65 1012.01 1012.46 1012.89 1013.32 1013.85 1014.27 1014.67 1015.23 1015.79
1002.00 1002.20 1002.44 1002.84 1003.27 1003.56 1004.00 1004.45 1005.12 1005.65 1006.19 1006.72 1007.18 1007.54 1007.84 1008.15 1008.58 1009.26 1009.88 1010.47 1010.90 1010.89 1010.59 1010.31 1010.26 1010.17 1010.15 1010.39 1010.54 1010.74 1010.75 1010.80 1011.14 1011.61 1012.03 1012.38 1012.83 1013.20 1013.75 1014.32 1014.75 1015.37 1015.99
1001.33 1001.59 1001.70 1002.38 1002.75 1003.22 1003.64 1004.26 1004.62 1005.30 1005.78 1006.35 1006.95 1007.17 1007.50 1007.90 1008.32 1008.68 1009.26 1010.17 1011.01 1011.11 1010.91 1010.49 1010.26 1010.26 1010.18 1010.43 1010.60 1010.77 1010.88 1011.04 1011.35 1011.61 1012.00 1012.40 1012.79 1013.21 1013.79 1014.39 1014.85 1015.52 1016.26
1000.91 1001.18 1001.37 1002.12 1002.62 1002.98 1003.45 1004.04 1004.54 1005.18 1005.70 1006.21 1006.75 1007.07 1007.46 1007.82 1008.16 1008.41 1008.80 1009.25 1010.07 1010.97 1010.95 1010.48 1010.46 1010.31 1010.39 1010.53 1010.67 1010.76 1010.91 1011.05 1011.38 1011.78 1012.16 1012.53 1012.90 1013.39 1014.04 1014.60 1015.16 1015.87 1016.55
1000.56 1000.56 1001.28 1001.98 1002.43 1002.90 1003.29 1003.89 1004.49 1005.17 1005.74 1006.24 1006.60 1007.07 1007.39 1007.75 1008.10 1008.38 1008.80 1009.20 1009.56 1010.16 1010.80 1010.56 1010.55 1010.53 1010.59 1010.59 1010.44 1010.71 1010.96 1011.13 1011.47 1011.94 1012.28 1012.69 1013.13 1013.63 1014.14 1014.67 1015.30 1016.16 1016.78
999.98 1000.48 1001.23 1001.87 1002.32 1002.85 1003.26 1003.81 1004.48 1005.15 1005.66 1006.20 1006.59 1006.95 1007.42 1007.64 1008.13 1008.53 1008.89 1009.21 1009.51 1009.81 1010.35 1010.70 1010.62 1010.63 1010.73 1010.90 1010.94 1011.01 1011.16 1011.50 1011.94 1012.26 1012.52 1012.93 1013.26 1013.70 1014.27 1013.92 1015.60 1016.48 1017.00
999.90 1000.38 1001.08 1001.65 1002.21 1002.72 1003.21 1003.91 1004.57 1005.12 1005.61 1006.10 1006.43 1006.95 1007.32 1007.63 1008.04 1008.41 1008.76 1009.13 1009.33 1009.54 1009.93 1010.46 1010.63 1010.80 1011.09 1011.25 1011.27 1011.32 1011.81 1012.06 1012.34 1012.63 1012.99 1013.09 1013.47 1014.05 1014.55 1015.20 1015.96 1016.62 1017.26
999.82 1000.39 1001.03 1001.59 1002.11 1002.74 1003.36 1003.78 1004.35 1005.07 1005.53 1005.82 1006.22 1006.66 1007.04 1007.44 1007.90 1008.31 1008.58 1009.00 1009.27 1009.44 1009.71 1010.04 1010.52 1010.83 1011.21 1011.50 1011.78 1012.10 1012.33 1012.60 1012.75 1013.03 1013.35 1013.53 1013.82 1014.42 1014.95 1015.66 1016.24 1016.72 1017.32
999.72 1000.48 1001.01 1001.50 1002.12 1002.77 1003.36 1003.99 1004.46 1004.95 1005.33 1005.58 1005.93 1006.33 1006.75 1007.09 1007.45 1007.99 1008.36 1008.89 1009.16 1009.54 1009.80 1010.13 1010.54 1010.96 1011.39 1011.83 1012.05 1012.42 1012.91 1013.16 1013.40 1013.50 1013.83 1014.08 1014.44 1014.81 1015.40 1015.99 1016.52 1016.91 1017.48
999.82 1000.37 1001.04 1001.75 1002.29 1002.95 1003.60 1004.11 1004.46 1004.94 1005.23 1005.61 1005.90 1006.22 1006.53 1006.73 1006.99 1007.45 1008.03 1008.69 1009.11 1009.54 1009.89 1010.29 1010.67 1011.03 1011.57 1012.00 1012.35 1012.75 1013.08 1013.52 1013.88 1014.11 1014.47 1014.82 1015.03 1015.41 1015.96 1016.36 1016.70 1017.17 1017.70
999.97 1000.54 1001.35 1002.09 1002.93 1003.55 1003.97 1003.96 1004.33 1004.83 1005.20 1005.52 1005.85 1006.19 1006.41 1006.68 1007.00 1007.35 1007.68 1008.07 1008.52 1009.12 1009.67 1010.24 1010.72 1011.07 1011.52 1012.09 1012.56 1012.90 1013.26 1013.75 1014.41 1014.47 1014.73 1015.30 1015.33 1015.79 1016.19 1016.46 1016.91 1017.39 1017.85
1000.40 1001.11 1001.97 1002.76 1003.47 1004.01 1004.26 1004.28 1004.40 1004.76 1005.18 1005.52 1005.83 1006.18 1006.48 1006.67 1006.95 1007.45 1007.89 1008.09 1008.63 1008.88 1008.97 1009.51 1010.36 1010.97 1011.45 1011.87 1012.35 1012.98 1013.40 1013.79 1014.23 1014.58 1014.80 1015.76 1015.82 1016.24 1016.39 1016.77 1017.08 1017.47 1017.86
1001.09 1001.88 1002.68 1003.28 1003.80 1004.43 1004.42 1004.52 1004.59 1004.91 1005.34 1005.56 1005.73 1006.00 1006.32 1006.72 1007.03 1007.31 1008.04 1008.51 1008.99 1009.33 1009.64 1009.80 1010.23 1010.71 1010.99 1011.67 1012.00 1012.65 1013.32 1014.00 1014.49 1014.90 1014.96 1015.82 1016.29 1016.75 1016.92 1017.01 1017.30 1017.53 1017.79
1001.83 1002.43 1003.11 1003.59 1004.08 1004.53 1004.70 1004.71 1004.84 1005.30 1005.65 1005.79 1005.81 1006.04 1006.32 1006.31 1006.96 1007.37 1007.93 1008.57 1009.22 1009.78 1010.01 1009.98 1010.25 1010.69 1011.06 1011.54 1012.01 1012.78 1013.46 1013.96 1014.70 1015.17 1015.31 1015.77 1016.51 1016.89 1017.16 1017.35 1017.31 1017.59 1017.77
1002.30 1002.95 1003.63 1003.96 1004.40 1004.83 1005.13 1005.10 1005.24 1005.61 1005.93 1006.05 1006.27 1006.64 1006.73 1007.02 1007.43 1007.68 1007.86 1008.57 1009.41 1010.01 1010.25 1010.74 1011.26 1011.71 1011.56 1011.79 1012.17 1012.46 1013.11 1013.66 1014.38 1015.24 1015.31 1015.81 1016.42 1016.67 1017.12 1017.23 1017.24 1017.44 1017.61
Wind_Speed
6 5 5 4 4 4 5 5 5 5 6 6 5 7 6 5 5 3 3 11 12 16 17 14 11 10 12 12 12 11 11 11 11 11 10 10 10 12 13 15 15 16 15
5 6 5 6 5 6 6 6 6 6 6 5 6 6 6 5 6 6 4 5 11 15 16 13 12 12 12 13 12 12 11 11 11 10 10 12 11 11 11 12 12 14 15
8 8 6 7 8 7 7 5 5 4 4 4 6 5 5 6 6 6 5 4 4 14 15 13 12 13 14 14 14 14 13 12 12 11 11 14 13 12 12 13 14 16 15
11 9 8 8 7 6 7 6 5 4 5 4 5 5 5 6 7 6 5 4 4 2 6 13 13 14 12 13 14 16 14 13 13 12 11 13 15 15 14 13 15 16 15
12 10 9 7 7 7 7 7 4 6 4 4 5 4 5 5 6 5 6 5 5 2 2 15 15 15 14 13 13 15 15 15 13 13 13 14 15 15 15 14 14 16 16
11 10 7 6 8 7 6 6 7 4 3 5 5 4 4 5 5 5 5 4 5 9 9 10 5 6 14 12 13 14 15 15 14 14 12 13 14 15 15 14 14 16 17
11 10 7 7 8 9 9 9 5 6 4 4 3 2 3 5 5 5 4 5 6 5 6 8 5 4 4 13 13 14 16 16 17 16 13 13 13 14 14 13 11 17 17
11 10 10 9 10 7 7 9 8 3 3 5 4 1 2 3 2 4 1 3 6 5 7 7 5 6 5 4 6 13 15 16 16 16 14 12 12 14 14 13 13 14 17
9 11 10 9 9 9 8 9 9 9 5 3 6 4 2 5 0 2 2 1 3 4 4 4 5 5 5 5 6 9 13 11 12 15 14 12 12 13 14 11 11 13 14
9 9 10 9 9 8 7 9 8 8 5 5 2 3 1 4 3 2 3 2 2 3 3 2 2 4 5 4 6 9 10 12 11 12 13 13 13 13 13 10 11 13 13
7 10 10 10 10 8 7 9 7 7 6 4 4 3 1 2 2 3 3 2 2 1 2 2 2 4 5 4 4 6 7 9 10 13 12 12 12 12 12 12 12 13 16
5 7 8 9 8 8 8 8 8 9 8 5 4 4 4 4 3 3 2 3 2 2 2 2 2 3 3 3 5 8 7 9 9 9 10 11 12 14 14 11 14 16 18
3 6 8 8 8 8 7 6 6 6 7 6 7 5 2 4 4 3 3 1 3 2 2 1 1 2 2 4 3 7 5 7 8 7 8 10 11 14 14 14 15 15 16
5 8 8 7 7 7 6 5 4 4 6 5 6 5 3 4 4 3 5 5 1 1 1 3 1 0 2 3 4 8 4 5 7 7 7 8 11 12 14 14 14 15 15
5 7 7 7 7 6 7 7 5 6 6 5 5 6 3 3 3 3 3 3 5 3 3 2 1 3 2 3 4 4 4 4 7 7 7 8 10 13 11 11 13 14 17
7 9 9 7 7 7 7 7 5 6 7 4 4 6 4 3 4 3 3 3 3 4 2 2 1 1 3 2 4 4 4 5 7 8 8 9 11 13 13 14 15 15 17
9 9 8 7 7 7 6 7 6 6 7 6 5 6 6 5 4 3 3 2 3 3 3 1 1 1 3 4 5 5 6 5 4 7 10 11 12 14 15 16 15 13 14
8 10 9 8 7 7 7 7 7 6 7 7 6 6 6 4 4 4 4 4 3 3 3 3 2 2 3 4 5 7 5 4 4 6 8 12 13 14 15 15 15 14 13
9 8 8 8 9 8 7 7 7 7 6 7 7 7 6 6 5 3 4 4 3 2 2 4 3 2 3 2 6 6 5 5 4 7 8 7 13 13 14 15 14 13 13
10 9 8 8 9 8 7 6 6 6 6 6 6 6 6 7 6 6 5 5 4 4 4 6 5 4 3 3 4 5 5 4 4 5 8 6 6 12 13 14 13 13 13
9 9 9 7 7 7 5 7 6 6 6 6 5 5 5 6 8 8 6 6 6 4 6 7 4 4 4 3 5 2 4 4 4 2 4 3 4 4 5 9 10 13 11
10 10 8 8 7 4 4 8 8 6 5 6 5 5 4 5 6 10 10 11 10 11 9 5 3 6 4 5 4 5 5 4 3 2 3 3 3 4 4 4 10 11 11
9 8 8 7 6 5 4 8 8 5 5 5 5 5 4 3 5 7 5 9 6 5 6 7 9 8 8 6 7 6 2 3 3 2 5 2 2 3 3 4 10 10 10
9 8 7 7 7 3 4 8 8 5 4 4 5 6 6 5 4 8 7 6 6 5 5 3 7 6 7 8 9 5 4 7 5 3 2 3 2 2 2 2 4 7 9
8 6 6 7 8 5 5 8 8 5 5 4 4 5 4 6 6 10 9 9 6 4 6 7 9 11 14 12 10 8 5 8 3 1 2 3 2 2 1 2 2 6 8
9 7 7 7 7 5 4 7 6 4 6 4 5 4 8 7 8 8 10 10 8 4 7 6 6 7 7 11 11 7 7 7 4 2 2 3 3 3 2 2 3 3 3
Wind_Direction
197 177 191 187 192 184 189 203 200 201 211 219 212 224 230 236 246 234 247 255 255 232 218 223 224 228 223 209 209 213 201 205 210 212 202 197 199 204 191 188 189 169 175
194 192 192 195 201 198 197 202 202 202 214 213 224 224 227 222 239 238 233 253 249 220 221 223 212 219 227 224 213 214 216 203 207 214 193 197 185 189 195 200 194 186 178
191 193 196 198 207 202 193 191 195 197 202 211 224 213 215 223 239 234 229 234 241 220 220 226 224 221 220 222 217 221 217 212 207 209 197 186 189 191 197 196 185 180 174
193 190 197 208 197 191 195 194 184 198 213 201 223 216 216 222 233 240 212 212 209 191 255 240 232 234 224 223 223 225 219 216 211 201 200 192 194 195 196 203 192 190 188
196 199 202 203 176 191 195 191 190 196 185 206 217 211 220 229 228 234 204 191 197 175 190 263 238 229 227 223 221 235 231 216 213 209 202 201 200 198 196 199 195 194 194
198 200 204 189 183 190 190 185 198 186 174 206 221 226 221 237 235 218 212 176 200 195 211 231 235 233 229 224 224 236 235 223 208 211 202 200 207 205 204 208 202 193 203
196 194 198 198 188 197 199 189 183 178 209 172 95 288 258 235 239 232 190 186 213 220 213 223 218 221 228 224 222 223 240 235 214 209 200 199 203 209 210 210 204 200 208
198 192 195 202 196 197 182 182 179 161 190 167 161 150 280 295 280 244 223 222 237 219 220 217 214 206 210 215 217 223 231 236 223 204 197 200 197 203 211 220 214 206 200
198 196 199 197 192 193 195 187 184 177 180 188 194 172 136 223 295 353 3 257 244 227 229 223 207 215 210 217 218 233 221 222 222 203 193 190 195 202 207 212 204 202 196
206 200 203 196 193 196 193 189 186 183 145 160 183 229 251 150 166 335 326 323 274 222 251 264 223 233 217 212 224 224 213 208 207 203 192 189 201 201 203 198 186 194 173
197 205 203 194 194 190 189 173 162 164 188 149 164 148 160 41 79 151 239 286 345 313 276 275 246 240 232 191 203 221 219 206 202 203 182 187 197 189 182 181 174 161 159
197 199 187 186 187 182 175 174 172 174 185 172 180 188 155 164 193 157 194 205 202 284 269 283 270 245 224 169 197 222 225 200 189 188 179 181 181 173 165 169 165 163 169
189 189 171 173 182 178 167 149 157 159 167 177 179 188 166 160 144 141 140 134 213 289 319 300 308 279 170 156 201 193 203 174 167 178 175 182 177 171 163 159 162 169 166
193 174 175 172 160 155 142 149 139 140 156 163 171 164 167 181 157 162 156 143 95 307 315 252 303 75 150 156 184 180 159 161 145 159 153 152 164 155 153 159 161 152 155
166 165 144 149 157 146 150 154 147 151 163 162 168 160 144 157 162 164 142 136 145 200 262 269 288 33 110 146 195 171 169 180 137 143 151 154 155 146 146 152 137 136 134
165 144 144 150 146 147 145 145 133 146 146 159 149 160 143 135 158 160 149 139 148 153 215 175 256 38 47 75 147 142 146 130 131 153 164 144 152 145 149 139 135 142 140
151 145 150 146 145 149 148 132 150 147 148 154 156 159 163 157 164 154 143 143 158 138 144 36 86 104 73 85 73 81 94 79 100 145 152 150 150 143 140 140 131 139 144
142 147 151 147 147 147 140 146 146 153 154 162 162 155 177 165 163 157 152 162 167 165 129 140 110 102 93 89 87 81 81 80 96 105 126 142 135 138 141 133 139 145 141
141 138 138 145 147 145 150 147 155 163 166 169 170 171 180 170 173 160 162 155 167 128 165 134 120 100 87 103 89 75 70 64 58 102 101 129 130 131 131 130 136 143 142
139 148 149 141 143 150 146 149 151 159 175 178 180 180 182 185 180 169 163 167 149 118 113 118 116 102 95 77 86 113 88 61 64 56 61 78 121 133 132 135 143 150 154
138 136 128 113 115 128 147 156 161 169 169 180 186 187 207 194 185 170 153 165 140 120 126 137 116 111 114 127 129 97 104 95 64 73 79 76 110 110 121 133 145 150 156
125 122 106 114 122 118 163 174 160 164 174 184 186 203 174 181 181 165 166 158 162 150 157 138 128 136 125 119 128 131 131 122 101 38 84 67 109 107 119 137 138 149 169
104 105 106 116 116 119 137 150 137 141 165 176 167 160 165 163 165 150 159 155 136 117 148 146 151 171 157 155 142 134 120 85 125 120 95 72 52 95 105 117 151 161 162
117 116 111 112 109 100 107 131 137 130 135 167 163 166 154 151 154 139 150 128 120 111 125 141 162 153 135 149 143 138 122 110 83 61 79 107 75 62 84 124 161 165 171
106 103 106 110 117 94 86 125 111 108 103 102 142 147 174 117 159 146 134 126 112 88 53 103 125 130 134 136 132 131 134 135 112 80 52 101 123 110 137 175 191 184 201
107 106 102 105 102 104 97 124 117 114 114 100 75 84 93 109 142 154 127 132 128 131 118 97 83 71 125 141 151 146 150 143 114 96 205 100 129 140 168 209 189 193 215